ARABSAT-6A

Last updated on Sun Jun 21 2026 00:03:08 GMT+0000 (Coordinated Universal Time)

1 44186U 19021A 26171.32669471 .00000149 00000+0 00000+0 0 9993 2 44186 0.0516 16.4098 0001432 337.6194 62.5990 1.00275621 26180
UTC large
Height (km)
Speed (km/s)
/
Latitude / Longitude
Inclination (degrees)
Orbital Period (minutes)
Azimuth
Elevation
Range (km)
Doppler Factor

Next 0 passes for location: London (51.5072 / 0.1276)

No passes found over London.
ARABSAT-6A